Location: Albany
(35.0170°S, 117.8920°E)
Time: 16:46:29
(UTC+08:00)

Transit 2A - Pass Details

Date: 30 January 2021
Orbit: 601 x 958 km, 66.7° (Epoch: 02 March)

Event Time Altitude Azimuth Distance (km) Brightness Sun altitude
Rises 01:40:41 0° 233° (SW) 3,624 9.6 -34.0°
Enters shadow 01:42:44 - 244° (WSW) 3,129 9.2 -33.9°
Reaches altitude 10° 01:45:29 10° 265° (W) 2,698 - -33.6°
Maximum altitude 01:47:10 11° 281° (W) 2,616 - -33.5°
Drops below altitude 10° 01:48:51 10° 297° (WNW) 2,693 - -33.3°
Sets 01:53:39 0° 329° (NNW) 3,606 - -32.9°
